| time (UTC) | temp C | wind direction | speed KPH | gust KPH | rain 1hr cm | rain 24hr cm | rain mn cm | humidity % | barometer mb |
| 20260504050311 | 13 | 155 | 4.8 | 9.7 | 0.00 | 0.00 | 0.00 | 71 | 1004.9 |
| 20260504045808 | 13 | 109 | 1.6 | 8.0 | 0.00 | 0.23 | 0.23 | 71 | 1004.8 |
| 20260504045304 | 13 | 180 | 3.2 | 9.7 | 0.00 | 0.23 | 0.23 | 70 | 1004.9 |
| 20260504044800 | 13 | 162 | 3.2 | 9.7 | 0.00 | 0.23 | 0.23 | 70 | 1004.9 |
| 20260504044258 | 13 | 190 | 8.0 | 11.3 | 0.00 | 0.23 | 0.23 | 70 | 1004.9 |
| 20260504043755 | 14 | 188 | 16.1 | 17.7 | 0.00 | 0.23 | 0.23 | 69 | 1004.9 |
| 20260504043251 | 14 | 183 | 4.8 | 11.3 | 0.00 | 0.23 | 0.23 | 68 | 1004.9 |
| 20260504042750 | 15 | 195 | 4.8 | 12.9 | 0.00 | 0.23 | 0.23 | 67 | 1005.1 |
| 20260504042245 | 15 | 210 | 12.9 | 16.1 | 0.00 | 0.23 | 0.23 | 66 | 1004.8 |
| 20260504041742 | 15 | 190 | 9.7 | 19.3 | 0.00 | 0.23 | 0.23 | 65 | 1004.7 |
| 20260504041238 | 15 | 192 | 4.8 | 16.1 | 0.00 | 0.23 | 0.23 | 65 | 1004.6 |
| 20260504040734 | 15 | 167 | 8.0 | 12.9 | 0.00 | 0.23 | 0.23 | 64 | 1004.7 |
| 20260504040232 | 15 | 189 | 4.8 | 16.1 | 0.00 | 0.23 | 0.23 | 63 | 1004.8 |
| 20260504035728 | 15 | 191 | 4.8 | 16.1 | 0.00 | 0.23 | 0.23 | 63 | 1004.7 |
| 20260504035225 | 15 | 169 | 4.8 | 14.5 | 0.00 | 0.23 | 0.23 | 63 | 1004.6 |
| 20260504034723 | 15 | 215 | 6.4 | 19.3 | 0.00 | 0.23 | 0.23 | 62 | 1004.8 |
| 20260504034220 | 15 | 149 | 6.4 | 14.5 | 0.00 | 0.23 | 0.23 | 63 | 1004.7 |
| 20260504033717 | 15 | 175 | 11.3 | 17.7 | 0.00 | 0.23 | 0.23 | 62 | 1004.9 |
| 20260504033215 | 15 | 159 | 8.0 | 11.3 | 0.00 | 0.23 | 0.23 | 62 | 1004.9 |
| 20260504032711 | 15 | 206 | 6.4 | 14.5 | 0.00 | 0.23 | 0.23 | 61 | 1004.9 |
| 20260504032209 | 15 | 180 | 3.2 | 16.1 | 0.00 | 0.23 | 0.23 | 61 | 1005.1 |
| 20260504031705 | 15 | 181 | 9.7 | 16.1 | 0.00 | 0.23 | 0.23 | 61 | 1005.2 |
| 20260504031202 | 15 | 161 | 8.0 | 14.5 | 0.00 | 0.23 | 0.23 | 61 | 1005.0 |
| 20260504030658 | 15 | 178 | 8.0 | 12.9 | 0.00 | 0.23 | 0.23 | 61 | 1005.1 |
| 20260504030156 | 15 | 98 | 1.6 | 6.4 | 0.00 | 0.23 | 0.23 | 61 | 1005.2 |
| 20260504025652 | 15 | 162 | 6.4 | 9.7 | 0.00 | 0.23 | 0.23 | 60 | 1005.2 |
| 20260504025149 | 16 | 174 | 6.4 | 9.7 | 0.00 | 0.23 | 0.23 | 60 | 1005.1 |
| 20260504024646 | 16 | 211 | 11.3 | 12.9 | 0.00 | 0.23 | 0.23 | 59 | 1004.9 |
| 20260504024142 | 16 | 212 | 8.0 | 9.7 | 0.00 | 0.23 | 0.23 | 59 | 1005.1 |
| 20260504023639 | 16 | 201 | 9.7 | 11.3 | 0.00 | 0.23 | 0.23 | 59 | 1005.0 |
| 20260504023130 | 16 | 199 | 6.4 | 14.5 | 0.00 | 0.23 | 0.23 | 59 | 1005.4 |
| 20260504022626 | 16 | 161 | 3.2 | 11.3 | 0.00 | 0.23 | 0.23 | 59 | 1005.4 |
| 20260504022121 | 16 | 200 | 8.0 | 12.9 | 0.00 | 0.23 | 0.23 | 58 | 1005.1 |
| 20260504021620 | 16 | 202 | 8.0 | 11.3 | 0.00 | 0.23 | 0.23 | 58 | 1005.1 |
| 20260504021116 | 16 | 188 | 6.4 | 17.7 | 0.00 | 0.23 | 0.23 | 58 | 1005.0 |
| 20260504020614 | 16 | 217 | 9.7 | 11.3 | 0.00 | 0.23 | 0.23 | 58 | 1004.8 |
| 20260504020109 | 16 | 187 | 6.4 | 14.5 | 0.00 | 0.23 | 0.23 | 58 | 1004.9 |
| 20260504015606 | 16 | 209 | 6.4 | 9.7 | 0.00 | 0.23 | 0.23 | 58 | 1004.9 |
| 20260504015102 | 16 | 159 | 4.8 | 9.7 | 0.00 | 0.23 | 0.23 | 58 | 1004.8 |
| 20260504014558 | 16 | 202 | 8.0 | 9.7 | 0.00 | 0.23 | 0.23 | 58 | 1004.9 |
| 20260504014056 | 16 | 214 | 3.2 | 9.7 | 0.00 | 0.23 | 0.23 | 58 | 1004.8 |
| 20260504013553 | 16 | 152 | 3.2 | 9.7 | 0.00 | 0.23 | 0.23 | 58 | 1004.8 |
| 20260504013050 | 16 | 185 | 3.2 | 11.3 | 0.00 | 0.23 | 0.23 | 57 | 1004.9 |
| 20260504012547 | 17 | 196 | 4.8 | 9.7 | 0.00 | 0.23 | 0.23 | 57 | 1004.4 |
| 20260504012045 | 17 | 175 | 4.8 | 9.7 | 0.00 | 0.23 | 0.23 | 56 | 1004.9 |
| 20260504011542 | 17 | 218 | 4.8 | 9.7 | 0.00 | 0.23 | 0.23 | 57 | 1004.7 |
| 20260504011038 | 17 | 170 | 8.0 | 9.7 | 0.00 | 0.23 | 0.23 | 56 | 1004.6 |
| 20260504010533 | 17 | 169 | 6.4 | 17.7 | 0.00 | 0.23 | 0.23 | 55 | 1004.6 |
| 20260504010030 | 17 | 201 | 6.4 | 14.5 | 0.00 | 0.23 | 0.23 | 55 | 1004.7 |
| 20260504005527 | 17 | 163 | 3.2 | 16.1 | 0.00 | 0.23 | 0.23 | 54 | 1004.6 |
| 20260504005024 | 17 | 186 | 4.8 | 16.1 | 0.00 | 0.23 | 0.23 | 54 | 1004.6 |
| 20260504004522 | 17 | 194 | 11.3 | 17.7 | 0.00 | 0.23 | 0.23 | 53 | 1004.6 |
| 20260504004019 | 18 | 204 | 4.8 | 14.5 | 0.00 | 0.23 | 0.23 | 53 | 1004.6 |
| 20260504003515 | 18 | 173 | 3.2 | 14.5 | 0.00 | 0.23 | 0.23 | 52 | 1004.5 |
| 20260504003012 | 18 | 178 | 4.8 | 12.9 | 0.00 | 0.23 | 0.23 | 52 | 1004.5 |
| 20260504002509 | 18 | 223 | 11.3 | 14.5 | 0.00 | 0.23 | 0.23 | 51 | 1004.5 |
| 20260504002006 | 18 | 193 | 4.8 | 16.1 | 0.00 | 0.23 | 0.23 | 51 | 1004.4 |
| 20260504001503 | 18 | 201 | 6.4 | 20.9 | 0.00 | 0.23 | 0.23 | 51 | 1004.6 |
| 20260504000959 | 18 | 190 | 8.0 | 12.9 | 0.00 | 0.23 | 0.23 | 50 | 1004.7 |
| 20260504000457 | 19 | 198 | 6.4 | 14.5 | 0.00 | 0.23 | 0.23 | 49 | 1004.5 |
| 20260503235954 | 19 | 176 | 6.4 | 12.9 | 0.00 | 0.23 | 0.23 | 48 | 1004.4 |
| 20260503235452 | 19 | 243 | 4.8 | 17.7 | 0.00 | 0.23 | 0.23 | 48 | 1004.6 |
| 20260503234949 | 20 | 219 | 8.0 | 17.7 | 0.00 | 0.23 | 0.23 | 47 | 1004.3 |
| 20260503234446 | 20 | 219 | 19.3 | 20.9 | 0.00 | 0.23 | 0.23 | 46 | 1004.6 |
| 20260503233945 | 20 | 202 | 9.7 | 27.4 | 0.00 | 0.23 | 0.23 | 46 | 1004.6 |
| 20260503233440 | 20 | 175 | 9.7 | 11.3 | 0.00 | 0.23 | 0.23 | 47 | 1004.5 |
| 20260503232937 | 20 | 219 | 17.7 | 22.5 | 0.00 | 0.23 | 0.23 | 45 | 1004.7 |
| 20260503232434 | 20 | 214 | 9.7 | 20.9 | 0.00 | 0.23 | 0.23 | 46 | 1004.7 |
| 20260503231932 | 20 | 204 | 8.0 | 24.1 | 0.00 | 0.23 | 0.23 | 46 | 1004.5 |
| 20260503231429 | 20 | 144 | 3.2 | 16.1 | 0.00 | 0.23 | 0.23 | 46 | 1004.6 |
| 20260503230926 | 20 | 2 | 3.2 | 16.1 | 0.00 | 0.23 | 0.23 | 46 | 1004.8 |
| 20260503230422 | 20 | 191 | 14.5 | 20.9 | 0.00 | 0.23 | 0.23 | 44 | 1004.8 |
| 20260503225920 | 20 | 181 | 8.0 | 27.4 | 0.00 | 0.23 | 0.23 | 44 | 1004.7 |
| 20260503225417 | 20 | 193 | 14.5 | 19.3 | 0.00 | 0.23 | 0.23 | 44 | 1004.8 |
| 20260503224912 | 20 | 197 | 4.8 | 30.6 | 0.00 | 0.23 | 0.23 | 45 | 1004.7 |
| 20260503224409 | 20 | 201 | 12.9 | 30.6 | 0.00 | 0.23 | 0.23 | 44 | 1004.7 |
| 20260503223907 | 20 | 186 | 19.3 | 22.5 | 0.00 | 0.23 | 0.23 | 43 | 1005.1 |
| 20260503223405 | 21 | 197 | 6.4 | 22.5 | 0.00 | 0.23 | 0.23 | 44 | 1004.9 |
| 20260503222900 | 21 | 226 | 6.4 | 14.5 | 0.00 | 0.23 | 0.23 | 45 | 1005.0 |
| 20260503222359 | 20 | 217 | 14.5 | 37.0 | 0.00 | 0.23 | 0.23 | 45 | 1005.1 |
| 20260503221856 | 21 | 205 | 14.5 | 27.4 | 0.00 | 0.23 | 0.23 | 44 | 1005.0 |
| 20260503221355 | 21 | 214 | 14.5 | 33.8 | 0.00 | 0.23 | 0.23 | 43 | 1005.0 |
| 20260503220850 | 20 | 223 | 9.7 | 33.8 | 0.00 | 0.23 | 0.23 | 46 | 1005.1 |
| 20260503220347 | 20 | 179 | 16.1 | 30.6 | 0.00 | 0.23 | 0.23 | 44 | 1005.1 |
| 20260503215844 | 20 | 212 | 19.3 | 20.9 | 0.00 | 0.23 | 0.23 | 44 | 1005.2 |
| 20260503215342 | 19 | 205 | 9.7 | 19.3 | 0.00 | 0.23 | 0.23 | 45 | 1005.1 |
| 20260503214839 | 19 | 180 | 4.8 | 16.1 | 0.00 | 0.23 | 0.23 | 46 | 1005.4 |
| 20260503214336 | 20 | 220 | 9.7 | 27.4 | 0.00 | 0.23 | 0.23 | 44 | 1005.2 |
| 20260503213833 | 20 | 207 | 11.3 | 27.4 | 0.00 | 0.23 | 0.23 | 43 | 1005.1 |
| 20260503213331 | 20 | 231 | 20.9 | 27.4 | 0.00 | 0.23 | 0.23 | 41 | 1005.7 |
| 20260503212828 | 20 | 152 | 16.1 | 20.9 | 0.00 | 0.23 | 0.23 | 43 | 1005.5 |
| 20260503212326 | 19 | 209 | 4.8 | 24.1 | 0.00 | 0.23 | 0.23 | 43 | 1005.7 |
| 20260503211823 | 19 | 218 | 1.6 | 33.8 | 0.00 | 0.23 | 0.23 | 45 | 1005.7 |
| 20260503211319 | 20 | 203 | 12.9 | 22.5 | 0.00 | 0.23 | 0.23 | 41 | 1005.7 |
| 20260503210820 | 20 | 200 | 9.7 | 37.0 | 0.00 | 0.23 | 0.23 | 43 | 1006.0 |
| 20260503210317 | 20 | 194 | 14.5 | 16.1 | 0.00 | 0.23 | 0.23 | 43 | 1006.1 |
| 20260503205812 | 19 | 212 | 8.0 | 32.2 | 0.00 | 0.23 | 0.23 | 43 | 1006.0 |
| 20260503205309 | 19 | 208 | 8.0 | 12.9 | 0.00 | 0.23 | 0.23 | 45 | 1006.4 |
| 20260503204805 | 18 | 207 | 6.4 | 27.4 | 0.00 | 0.23 | 0.23 | 45 | 1006.4 |
| 20260503204303 | 18 | 219 | 25.7 | 29.0 | 0.00 | 0.23 | 0.23 | 44 | 1006.3 |
| 20260503203800 | 18 | 218 | 11.3 | 30.6 | 0.00 | 0.23 | 0.23 | 45 | 1006.5 |
| 20260503203257 | 19 | 183 | 9.7 | 29.0 | 0.00 | 0.23 | 0.23 | 44 | 1006.5 |
| 20260503202754 | 18 | 215 | 14.5 | 29.0 | 0.00 | 0.23 | 0.23 | 45 | 1006.8 |
| 20260503202252 | 19 | 190 | 11.3 | 27.4 | 0.00 | 0.23 | 0.23 | 45 | 1006.9 |
| 20260503201750 | 19 | 191 | 9.7 | 25.7 | 0.00 | 0.23 | 0.23 | 44 | 1006.9 |
| 20260503201247 | 19 | 228 | 17.7 | 29.0 | 0.00 | 0.23 | 0.23 | 42 | 1007.0 |
| 20260503200744 | 19 | 229 | 14.5 | 41.8 | 0.00 | 0.23 | 0.23 | 42 | 1007.1 |
| 20260503200240 | 19 | 171 | 24.1 | 29.0 | 0.00 | 0.23 | 0.23 | 43 | 1007.3 |
| 20260503195737 | 18 | 235 | 6.4 | 33.8 | 0.00 | 0.23 | 0.23 | 42 | 1007.1 |
| 20260503195234 | 18 | 178 | 12.9 | 29.0 | 0.00 | 0.23 | 0.23 | 44 | 1007.4 |
| 20260503194732 | 18 | 176 | 14.5 | 24.1 | 0.00 | 0.23 | 0.23 | 43 | 1007.2 |
| 20260503194227 | 17 | 189 | 17.7 | 38.6 | 0.00 | 0.23 | 0.23 | 42 | 1007.5 |
| 20260503193723 | 18 | 197 | 12.9 | 41.8 | 0.00 | 0.23 | 0.23 | 43 | 1007.5 |
| 20260503193219 | 19 | 192 | 20.9 | 35.4 | 0.00 | 0.23 | 0.23 | 41 | 1007.4 |
| 20260503192715 | 18 | 202 | 14.5 | 30.6 | 0.00 | 0.23 | 0.23 | 43 | 1007.5 |
| 20260503192211 | 18 | 228 | 17.7 | 37.0 | 0.00 | 0.23 | 0.23 | 43 | 1007.7 |
| 20260503191708 | 18 | 193 | 9.7 | 33.8 | 0.00 | 0.23 | 0.23 | 45 | 1007.9 |
| 20260503191205 | 18 | 181 | 16.1 | 27.4 | 0.00 | 0.23 | 0.23 | 48 | 1007.9 |
| 20260503190702 | 17 | 199 | 16.1 | 37.0 | 0.00 | 0.23 | 0.23 | 49 | 1007.7 |
| 20260503190158 | 17 | 172 | 8.0 | 32.2 | 0.00 | 0.23 | 0.23 | 51 | 1007.8 |
| 20260503185655 | 17 | 143 | 8.0 | 20.9 | 0.00 | 0.23 | 0.23 | 56 | 1007.9 |
| 20260503185150 | 17 | 195 | 9.7 | 19.3 | 0.00 | 0.23 | 0.23 | 54 | 1007.9 |
| 20260503184645 | 16 | 185 | 14.5 | 24.1 | 0.00 | 0.23 | 0.23 | 55 | 1008.0 |
| 20260503184142 | 16 | 124 | 14.5 | 20.9 | 0.00 | 0.23 | 0.23 | 57 | 1008.2 |
| 20260503183638 | 16 | 202 | 6.4 | 41.8 | 0.00 | 0.23 | 0.23 | 60 | 1008.0 |
| 20260503183136 | 16 | 209 | 4.8 | 14.5 | 0.00 | 0.23 | 0.23 | 63 | 1008.4 |
| 20260503182634 | 15 | 147 | 8.0 | 17.7 | 0.00 | 0.23 | 0.23 | 65 | 1008.4 |
| 20260503182132 | 15 | 199 | 9.7 | 30.6 | 0.00 | 0.23 | 0.23 | 64 | 1008.6 |
| 20260503181629 | 15 | 240 | 9.7 | 17.7 | 0.00 | 0.23 | 0.23 | 65 | 1008.8 |
| 20260503181126 | 15 | 217 | 11.3 | 16.1 | 0.00 | 0.23 | 0.23 | 66 | 1008.9 |
| 20260503180623 | 15 | 105 | 4.8 | 17.7 | 0.00 | 0.23 | 0.23 | 68 | 1009.0 |
| 20260503180121 | 14 | 263 | 6.4 | 20.9 | 0.00 | 0.23 | 0.23 | 67 | 1009.3 |
| 20260503175617 | 14 | 116 | 9.7 | 24.1 | 0.00 | 0.23 | 0.23 | 69 | 1009.4 |
| 20260503175114 | 13 | 98 | 3.2 | 14.5 | 0.00 | 0.23 | 0.23 | 74 | 1009.4 |
| 20260503174611 | 13 | 256 | 6.4 | 12.9 | 0.00 | 0.23 | 0.23 | 76 | 1009.8 |
| 20260503174108 | 12 | 144 | 8.0 | 17.7 | 0.00 | 0.23 | 0.23 | 80 | 1009.7 |
| 20260503173603 | 11 | 160 | 6.4 | 22.5 | 0.00 | 0.23 | 0.23 | 81 | 1009.9 |
| 20260503173100 | 11 | 121 | 6.4 | 12.9 | 0.00 | 0.23 | 0.23 | 83 | 1010.0 |
| 20260503172557 | 10 | 81 | 8.0 | 12.9 | 0.00 | 0.23 | 0.23 | 85 | 1010.1 |
| 20260503172054 | 9 | 94 | 12.9 | 17.7 | 0.00 | 0.23 | 0.23 | 86 | 1010.4 |
| 20260503171550 | 9 | 135 | 3.2 | 12.9 | 0.00 | 0.23 | 0.23 | 87 | 1010.5 |
| 20260503171048 | 8 | 300 | 6.4 | 9.7 | 0.00 | 0.23 | 0.23 | 89 | 1010.9 |
| 20260503170544 | 8 | 120 | 6.4 | 14.5 | 0.00 | 0.23 | 0.23 | 89 | 1011.4 |
| 20260503150925 | 8 | 142 | 0.0 | 9.7 | 0.61 | 0.13 | 0.13 | 89 | 1013.4 |
| 20260503150421 | 8 | 84 | 4.8 | 16.1 | 0.53 | 0.10 | 0.10 | 86 | 1013.7 |
| 20260503131314 | 10 | 193 | 11.3 | 22.5 | 0.00 | 0.00 | 0.00 | 63 | 1013.2 |
| 20260503130812 | 10 | 195 | 11.3 | 12.9 | 0.00 | 0.00 | 0.00 | 64 | 1013.1 |
| 20260503130309 | 9 | 166 | 9.7 | 20.9 | 0.00 | 0.00 | 0.00 | 64 | 1013.1 |
| 20260503110657 | 7 | 175 | 6.4 | 25.7 | 0.00 | 0.00 | 0.00 | 64 | 1012.8 |
| 20260503110154 | 7 | 184 | 9.7 | 16.1 | 0.00 | 0.00 | 0.00 | 64 | 1013.0 |
| 20260503100120 | 8 | 174 | 9.7 | 17.7 | 0.00 | 0.00 | 0.00 | 62 | 1013.4 |
| 20260503081503 | 7 | 180 | 8.0 | 9.7 | 0.00 | 0.00 | 0.00 | 63 | 1013.9 |
| 20260503081001 | 7 | 128 | 6.4 | 12.9 | 0.00 | 0.00 | 0.00 | 63 | 1013.7 |
| 20260503080457 | 7 | 174 | 6.4 | 11.3 | 0.00 | 0.00 | 0.00 | 62 | 1013.8 |
| 20260503072934 | 7 | 192 | 3.2 | 6.4 | 0.00 | 0.00 | 0.00 | 60 | 1014.0 |
| 20260503072431 | 7 | 169 | 3.2 | 9.7 | 0.00 | 0.00 | 0.00 | 60 | 1013.8 |
| 20260503071928 | 7 | 158 | 4.8 | 9.7 | 0.00 | 0.00 | 0.00 | 60 | 1014.1 |
| 20260503071425 | 7 | 156 | 4.8 | 11.3 | 0.00 | 0.00 | 0.00 | 59 | 1014.1 |
| 20260503070921 | 7 | 184 | 6.4 | 11.3 | 0.00 | 0.00 | 0.00 | 59 | 1014.1 |
| 20260503070418 | 7 | 181 | 4.8 | 8.0 | 0.00 | 0.00 | 0.00 | 59 | 1014.0 |